sat.trackr.live / text

‹ back to catalog

STARLINK-31435

NORAD 59004 · 2024-036G

PAYLOAD ACTIVE UNKNOWN

§ Identity

Operator
Country
US
Launch date
2024-02-23
Launch site
AFWTR
Launch vehicle
Mass (kg)
RCS (m²)

Purposes: comms

External: N2YO · Heavens-Above · Gunter

§ Orbital elements

Epoch: 2026-09-20T09:02:22.931520Z

Period
93.85 min
Inclination
53.1577°
Eccentricity
0.0001452
Mean motion
15.34392907 rev/d
Perigee alt
461.7 km
Apogee alt
463.7 km
Semi-major
6,840.9 km
B*
4.3275e-5
RAAN
252.2014°
Arg perigee
84.1874°
Mean anomaly
275.9294°
Rev number
14,516

§ Raw data

STARLINK-314351 59004U 24036G   26263.37665430  .00001086  00000+0  43275-4 0  99952 59004  53.1577 252.2014 0001452  84.1874 275.9294 15.34392907145166

JSON: /api/v1/satellites/59004 · /tle

For live sub-satellite position, see the globe view (requires WebGL).

§ Visibility from observer

Set your observer location to see the next 7 days of passes ≥ 10°. The values pass through the URL so the page stays shareable.

No JS? Fill the form by hand. The geolocation button needs JavaScript.